Whiteman AFB, MO

11:26 PM CST on January 16, 2018 (GMT -0600)
Whiteman Air Force Base

Weather History for KSZL - January, 2015

Change the Weather History Date:

Tuesday, January 13, 2015

  Actual Average Record
Temperature  
Mean Temperature 16 °F -  
Max Temperature 27 °F 36 °F 59 °F (2002)
Min Temperature 4 °F 20 °F -4 °F (1997)
Degree Days  
Heating Degree Days 50    
Moisture  
Dew Point 7 °F    
Average Humidity 72    
Maximum Humidity 83    
Minimum Humidity 50    
Precipitation  
Precipitation 0.00 in - - ()
Sea Level Pressure  
Sea Level Pressure 30.63 in    
Wind  
Wind Speed 6 mph (NNE)    
Max Wind Speed 9 mph    
Max Gust Speed -    
Visibility 10 miles    
Events      
Averages and records for this station are not official NWS values.
T = Trace of Precipitation, MM = Missing Value Source: NWS Daily Summary

Daily Weather History Graph

Daily Weather History Graph

Search for Another Location

Airport or City:

Trip Planner

Search our weather history database for the weather conditions in past years. The results will help you decide how hot, cold, wet, or windy it might be!

Date:

Astronomy

Jan. 13, 2015 Rise Set
Actual Time 7:31 AM CST 5:14 PM CST
Civil Twilight 7:02 AM CST 5:43 PM CST
Nautical Twilight 6:29 AM CST 6:16 PM CST
Astronomical Twilight 5:57 AM CST 6:48 PM CST
Moon 12:28 AM CST (1/13) 11:53 AM CST (1/13)
Length of Visible Light 10h 41m
Length of Day
9h 42m
Waning Gibbous, 47% of the Moon is Illuminated
Jan 13
Waning Gibbous
Jan 20
New
Jan 26
First Quarter
Feb 3
Full
Feb 11
Last Quarter

Hourly Weather History & Observations

Time (CST) Temp. Windchill Dew Point Humidity Pressure Visibility Wind Dir Wind Speed Gust Speed Precip Events Conditions
12:58 AM 9.7 °F -2.4 °F 3.9 °F 77% 30.71 in 10.0 mi NNE 8.1 mph - N/A   Clear
1:58 AM 8.1 °F -3.2 °F 3.0 °F 80% 30.71 in 10.0 mi NNE 6.9 mph - N/A   Clear
2:58 AM 6.6 °F -3.7 °F 2.1 °F 82% 30.73 in 10.0 mi NNE 5.8 mph - N/A   Partly Cloudy
3:58 AM 5.9 °F -4.5 °F 1.4 °F 82% 30.72 in 10.0 mi North 5.8 mph - N/A   Clear
4:58 AM 5.4 °F -6.5 °F 1.2 °F 83% 30.71 in 10.0 mi North 6.9 mph - N/A   Clear
5:58 AM 4.8 °F -7.1 °F 0.5 °F 82% 30.71 in 10.0 mi NNE 6.9 mph - N/A   Clear
6:58 AM 5.0 °F -6.9 °F 0.7 °F 82% 30.72 in 10.0 mi NNE 6.9 mph - N/A   Scattered Clouds
7:58 AM 5.5 °F -5.0 °F 0.7 °F 80% 30.72 in 10.0 mi NNE 5.8 mph - N/A   Clear
8:58 AM 8.1 °F -2.0 °F 2.3 °F 77% 30.71 in 10.0 mi NNE 5.8 mph - N/A   Clear
9:58 AM 13.1 °F 2.8 °F 5.9 °F 73% 30.71 in 10.0 mi ENE 6.9 mph - N/A   Clear
10:58 AM 17.1 °F 8.7 °F 7.9 °F 67% 30.69 in 10.0 mi NE 5.8 mph - N/A   Clear
11:58 AM 21.6 °F 14.0 °F 10.4 °F 62% 30.65 in 10.0 mi Variable 5.8 mph - N/A   Clear
12:58 PM 24.3 °F 16.3 °F 11.5 °F 58% 30.61 in 10.0 mi NE 6.9 mph - N/A   Clear
1:58 PM 26.2 °F 22.1 °F 10.9 °F 52% 30.58 in 10.0 mi Variable 3.5 mph - N/A   Scattered Clouds
2:58 PM 27.1 °F 18.2 °F 10.6 °F 50% 30.56 in 10.0 mi NE 9.2 mph - N/A   Partly Cloudy
3:58 PM 25.9 °F 18.2 °F 9.7 °F 50% 30.55 in 10.0 mi NNE 6.9 mph - N/A   Clear
4:58 PM 24.8 °F 17.9 °F 10.4 °F 54% 30.55 in 10.0 mi NE 5.8 mph - N/A   Clear
5:58 PM 21.4 °F - 10.9 °F 64% 30.57 in 10.0 mi North 2.3 mph - N/A   Clear
6:58 PM 19.9 °F - 10.8 °F 68% 30.55 in 10.0 mi ENE 2.3 mph - N/A   Clear
7:58 PM 17.6 °F - 10.6 °F 74% 30.54 in 10.0 mi NNE 2.3 mph - N/A   Clear
8:58 PM 17.1 °F - 11.5 °F 79% 30.53 in 10.0 mi NE 2.3 mph - N/A   Scattered Clouds
9:58 PM 15.6 °F - 11.3 °F 83% 30.51 in 10.0 mi NE 1.2 mph - N/A   Scattered Clouds
10:58 PM 19.2 °F - 13.1 °F 77% 30.51 in 10.0 mi NNE 1.2 mph - N/A   Mostly Cloudy
11:58 PM 18.7 °F - 13.6 °F 81% 30.49 in 10.0 mi Calm Calm - N/A   Mostly Cloudy